This is the latest recevied weather packets stored in our database for station/object OE3PDB-3. If no packets are shown the sender has not sent any weather packets the latest 10 day(s).
| Time | Temp. | Humidity | Pressure | Rain* | Wind** | Luminosity | Snow |
|---|---|---|---|---|---|---|---|
| 1787967625 | 15.56° C | 85% | 1016.1 hPa | 0 mm | - | - | - |
| 1787967025 | 16.11° C | 85% | 1016 hPa | 0 mm | - | - | - |
| 1787966425 | 16.11° C | 84% | 1016.1 hPa | 0 mm | - | - | - |
| 1787965825 | 16.67° C | 84% | 1016.3 hPa | 0 mm | - | - | - |
| 1787965225 | 17.22° C | 84% | 1016.2 hPa | 0 mm | - | - | - |
| 1787964625 | 17.78° C | 85% | 1016.6 hPa | 0 mm | - | - | - |
| 1787964025 | 17.78° C | 85% | 1016.3 hPa | 0 mm | - | - | - |
| 1787963425 | 18.33° C | 85% | 1016 hPa | 0 mm | - | - | - |
| 1787962825 | 18.89° C | 86% | 1015.7 hPa | 0 mm | - | - | - |
| 1787962225 | 18.89° C | 85% | 1015.7 hPa | 0 mm | - | - | - |
| 1787961023 | 19.44° C | 82% | 1014.8 hPa | 0 mm | - | - | - |
| 1787960423 | 20° C | 80% | 1014.3 hPa | 0 mm | - | - | - |
| 1787959823 | 20° C | 78% | 1014 hPa | 0 mm | - | - | - |
| 1787959224 | 20° C | 77% | 1013.9 hPa | 0 mm | - | - | - |
| 1787958624 | 20° C | 77% | 1013.6 hPa | 0 mm | - | - | - |
| 1787958024 | 20° C | 76% | 1013.2 hPa | 0 mm | - | - | - |
| 1787957424 | 20.56° C | 76% | 1013 hPa | 0 mm | - | - | - |
| 1787956824 | 20.56° C | 75% | 1012.9 hPa | 0 mm | - | - | - |
| 1787956224 | 20.56° C | 75% | 1013 hPa | 0 mm | - | - | - |
| 1787955624 | 20.56° C | 75% | 1013 hPa | 0 mm | - | - | - |
| 1787955024 | 20.56° C | 75% | 1013 hPa | 0 mm | - | - | - |
| 1787954424 | 20.56° C | 74% | 1013 hPa | 0 mm | - | - | - |
| 1787953824 | 21.11° C | 74% | 1012.9 hPa | 0 mm | - | - | - |
| 1787953224 | 21.11° C | 73% | 1012.6 hPa | 0 mm | - | - | - |
| 1787952624 | 21.11° C | 73% | 1012.6 hPa | 0 mm | - | - | - |
* Rain latest hour (hover to see other rain measurements)
** Current wind speed in m/s (hover to see current wind gust speed)